Flora, IL

5:05 AM CST on November 21, 2017 (GMT -0600)
Flora Municipal

Weather History for KFOA - November, 2012

Change the Weather History Date:

Saturday, November 3, 2012

  Actual Average (KSLO) Record (KSLO)
Temperature  
Mean Temperature 44 °F -  
Max Temperature 50 °F 59 °F 80 °F (1987)
Min Temperature 37 °F 39 °F 17 °F (1991)
Degree Days  
Heating Degree Days 21    
Moisture  
Dew Point 37 °F    
Average Humidity 77    
Maximum Humidity 97    
Minimum Humidity 64    
Precipitation  
Precipitation 0.00 in - - ()
Sea Level Pressure  
Sea Level Pressure 30.10 in    
Wind  
Wind Speed 8 mph (NE)    
Max Wind Speed 14 mph    
Max Gust Speed 17 mph    
Visibility 10 miles    
Events Rain , Thunderstorm    
Averages and records for this station are not official NWS values.
T = Trace of Precipitation, MM = Missing Value Source: NWS Daily Summary

Daily Weather History Graph

Daily Weather History Graph

Search for Another Location

Airport or City:

Trip Planner

Search our weather history database for the weather conditions in past years. The results will help you decide how hot, cold, wet, or windy it might be!

Date:

Astronomy

Nov. 03, 2012 Rise Set
Actual Time 7:23 AM CDT 5:50 PM CDT
Civil Twilight 6:55 AM CDT 6:18 PM CDT
Nautical Twilight 6:24 AM CDT 6:50 PM CDT
Astronomical Twilight 5:53 AM CDT 7:21 PM CDT
Moon 9:32 PM CDT (11/3) 11:26 AM CDT (11/3)
Length of Visible Light 11h 22m
Length of Day
10h 27m
Waning Gibbous, 80% of the Moon is Illuminated
Nov 3
Waning Gibbous
Nov 6
Last Quarter
Nov 13
New
Nov 20
First Quarter
Nov 28
Full

Hourly Weather History & Observations

Time (CDT) Temp. Windchill Dew Point Humidity Pressure Visibility Wind Dir Wind Speed Gust Speed Precip Events Conditions
12:15 AM 43.7 °F 40.3 °F 36.0 °F 74% 30.10 in 10.0 mi NE 5.8 mph - N/A   Clear
12:35 AM 43.3 °F 39.9 °F 35.8 °F 75% 30.10 in 10.0 mi NE 5.8 mph - N/A   Clear
12:55 AM 43.3 °F 40.7 °F 35.6 °F 74% 30.10 in 10.0 mi NE 4.6 mph - N/A   Clear
1:15 AM 43.7 °F 40.3 °F 35.2 °F 72% 30.10 in 10.0 mi NE 5.8 mph - N/A   Clear
1:35 AM 42.8 °F 41.1 °F 35.1 °F 74% 30.09 in 10.0 mi ENE 3.5 mph - N/A   Clear
1:55 AM 42.8 °F 39.3 °F 34.7 °F 73% 30.09 in 10.0 mi ENE 5.8 mph - N/A   Clear
2:15 AM 42.8 °F 40.1 °F 34.5 °F 73% 30.09 in 10.0 mi ENE 4.6 mph - N/A   Clear
2:35 AM 42.3 °F 37.9 °F 34.3 °F 74% 30.08 in 10.0 mi ENE 6.9 mph - N/A   Clear
2:55 AM 42.4 °F 37.5 °F 34.3 °F 73% 30.07 in 10.0 mi ENE 8.1 mph - N/A   Clear
3:15 AM 42.8 °F 39.3 °F 34.7 °F 73% 30.07 in 10.0 mi ENE 5.8 mph - N/A   Scattered Clouds
3:35 AM 43.2 °F 38.4 °F 34.7 °F 72% 30.07 in 10.0 mi East 8.1 mph - N/A   Mostly Cloudy
3:55 AM 43.7 °F 39.1 °F 34.7 °F 71% 30.07 in 10.0 mi East 8.1 mph - N/A   Mostly Cloudy
4:15 AM 44.1 °F 39.5 °F 35.1 °F 71% 30.08 in 10.0 mi ENE 8.1 mph - N/A Rain Light Rain
4:35 AM 43.7 °F 39.1 °F 36.0 °F 74% 30.08 in 10.0 mi East 8.1 mph - N/A   Overcast
4:55 AM 44.1 °F 39.5 °F 36.5 °F 75% 30.09 in 10.0 mi ENE 8.1 mph - N/A   Overcast
5:15 AM 43.9 °F 38.3 °F 36.9 °F 76% 30.10 in 10.0 mi NE 10.4 mph - N/A   Overcast
5:35 AM 43.3 °F 38.1 °F 36.3 °F 76% 30.09 in 10.0 mi East 9.2 mph - N/A Thunderstorm Overcast
5:55 AM 43.3 °F 39.2 °F 36.0 °F 75% 30.10 in 10.0 mi East 6.9 mph - N/A   Overcast
6:15 AM 43.5 °F 37.9 °F 36.3 °F 76% 30.09 in 10.0 mi East 10.4 mph - N/A   Overcast
6:35 AM 43.2 °F 38.4 °F 37.0 °F 79% 30.10 in 10.0 mi East 8.1 mph - N/A Rain Light Rain
6:55 AM 43.2 °F 37.9 °F 37.4 °F 80% 30.09 in 10.0 mi ESE 9.2 mph - N/A   Overcast
7:15 AM 43.7 °F 38.6 °F 37.4 °F 78% 30.09 in 10.0 mi ESE 9.2 mph - N/A   Overcast
7:35 AM 44.1 °F 40.1 °F 37.0 °F 76% 30.09 in 10.0 mi East 6.9 mph - N/A   Overcast
7:55 AM 44.6 °F 39.7 °F 37.4 °F 76% 30.10 in 10.0 mi East 9.2 mph - N/A   Overcast
8:15 AM 44.8 °F 41.0 °F 36.9 °F 74% 30.10 in 10.0 mi East 6.9 mph - N/A   Overcast
8:35 AM 45.0 °F 41.8 °F 36.7 °F 73% 30.11 in 10.0 mi East 5.8 mph - N/A   Overcast
8:55 AM 45.1 °F 42.0 °F 37.6 °F 75% 30.10 in 10.0 mi ENE 5.8 mph - N/A   Overcast
9:15 AM 45.1 °F 40.8 °F 37.9 °F 76% 30.10 in 10.0 mi ENE 8.1 mph - N/A   Overcast
9:35 AM 45.5 °F 40.8 °F 38.1 °F 75% 30.10 in 10.0 mi ENE 9.2 mph - N/A   Overcast
9:55 AM 45.7 °F 41.0 °F 37.6 °F 73% 30.10 in 10.0 mi ENE 9.2 mph - N/A   Overcast
10:15 AM 45.7 °F 41.0 °F 38.8 °F 77% 30.10 in 10.0 mi ENE 9.2 mph - N/A   Overcast
10:35 AM 45.3 °F 40.1 °F 38.5 °F 77% 30.10 in 10.0 mi ENE 10.4 mph - N/A   Overcast
10:55 AM 45.9 °F 40.4 °F 38.3 °F 75% 30.09 in 10.0 mi East 11.5 mph 16.1 mph N/A   Overcast
11:15 AM 46.4 °F 41.5 °F 37.9 °F 72% 30.08 in 10.0 mi East 10.4 mph - N/A   Overcast
11:35 AM 46.8 °F - 37.6 °F 70% 30.07 in 10.0 mi East 13.8 mph - N/A   Overcast
11:55 AM 47.5 °F - 37.8 °F 69% 30.07 in 10.0 mi ENE 12.7 mph - N/A   Overcast
12:15 PM 47.7 °F - 37.6 °F 68% 30.07 in 10.0 mi ENE 10.4 mph 17.3 mph N/A   Overcast
12:35 PM 48.6 °F - 37.8 °F 66% 30.06 in 10.0 mi ENE 11.5 mph - N/A   Overcast
12:55 PM 48.6 °F - 37.4 °F 65% 30.06 in 10.0 mi ENE 12.7 mph - N/A   Overcast
1:15 PM 49.3 °F - 37.8 °F 65% 30.05 in 10.0 mi ENE 10.4 mph - N/A   Overcast
1:35 PM 50.0 °F - 38.1 °F 64% 30.04 in 10.0 mi ENE 8.1 mph - N/A   Overcast
1:55 PM 50.0 °F - 38.1 °F 64% 30.05 in 10.0 mi NE 11.5 mph - N/A   Overcast
2:15 PM 49.3 °F - 37.9 °F 65% 30.06 in 10.0 mi NE 9.2 mph - N/A   Overcast
2:35 PM 49.3 °F - 38.3 °F 66% 30.06 in 10.0 mi NE 9.2 mph - N/A   Overcast
2:55 PM 49.3 °F - 38.8 °F 67% 30.05 in 10.0 mi NE 11.5 mph - N/A   Overcast
3:15 PM 48.2 °F - 39.7 °F 73% 30.07 in 10.0 mi NNE 11.5 mph - N/A   Overcast
3:35 PM 46.8 °F - 39.7 °F 77% 30.07 in 10.0 mi NE 9.2 mph - N/A   Overcast
3:55 PM 46.2 °F 42.2 °F 39.7 °F 78% 30.08 in 10.0 mi NNE 8.1 mph - N/A   Overcast
4:15 PM 46.4 °F 41.5 °F 39.7 °F 78% 30.09 in 10.0 mi NE 10.4 mph 16.1 mph N/A   Overcast
4:35 PM 46.0 °F 41.4 °F 39.4 °F 78% 30.10 in 10.0 mi NNE 9.2 mph - N/A   Overcast
4:55 PM 46.2 °F 42.2 °F 39.2 °F 76% 30.10 in 10.0 mi NNE 8.1 mph 16.1 mph N/A   Overcast
5:15 PM 46.6 °F - 39.4 °F 76% 30.11 in 10.0 mi NNE 11.5 mph - N/A   Overcast
5:35 PM 46.4 °F 41.5 °F 39.0 °F 75% 30.12 in 10.0 mi NNE 10.4 mph - N/A   Overcast
5:55 PM 46.2 °F 40.5 °F 38.8 °F 75% 30.11 in 10.0 mi NNE 12.7 mph - N/A   Overcast
6:15 PM 45.9 °F 42.3 °F 39.2 °F 78% 30.12 in 10.0 mi NNE 6.9 mph - N/A   Overcast
6:35 PM 45.1 °F 39.9 °F 39.2 °F 80% 30.12 in 10.0 mi North 10.4 mph - N/A   Overcast
6:55 PM 44.6 °F 40.2 °F 39.2 °F 81% 30.12 in 10.0 mi NNE 8.1 mph - N/A   Mostly Cloudy
7:15 PM 44.6 °F 39.7 °F 38.8 °F 80% 30.13 in 10.0 mi NNE 9.2 mph - N/A   Overcast
7:35 PM 44.6 °F 39.7 °F 39.2 °F 81% 30.14 in 10.0 mi North 9.2 mph - N/A   Overcast
7:55 PM 44.6 °F 40.7 °F 39.2 °F 81% 30.14 in 10.0 mi NNE 6.9 mph - N/A   Overcast
8:15 PM 44.6 °F 40.2 °F 39.4 °F 82% 30.15 in 10.0 mi NNE 8.1 mph - N/A   Overcast
8:35 PM 43.7 °F 39.7 °F 39.2 °F 84% 30.15 in 10.0 mi NNE 6.9 mph - N/A   Mostly Cloudy
8:55 PM 42.3 °F 38.6 °F 38.5 °F 86% 30.16 in 10.0 mi North 5.8 mph - N/A   Clear
9:15 PM 41.0 °F 38.0 °F 38.3 °F 90% 30.17 in 10.0 mi North 4.6 mph - N/A   Clear
9:35 PM 40.3 °F 36.3 °F 38.3 °F 93% 30.17 in 10.0 mi North 5.8 mph - N/A   Clear
9:55 PM 39.7 °F 35.6 °F 38.3 °F 95% 30.18 in 7.0 mi North 5.8 mph - N/A   Clear
10:15 PM 39.2 °F 35.0 °F 37.6 °F 94% 30.18 in 7.0 mi North 5.8 mph - N/A   Clear
10:35 PM 39.4 °F 35.2 °F 37.9 °F 95% 30.18 in 7.0 mi North 5.8 mph - N/A   Clear
10:55 PM 38.8 °F 34.6 °F 37.6 °F 95% 30.18 in 7.0 mi North 5.8 mph - N/A   Clear
11:15 PM 38.8 °F 34.6 °F 37.6 °F 95% 30.17 in 7.0 mi North 5.8 mph - N/A   Clear
11:35 PM 38.1 °F 34.6 °F 36.9 °F 95% 30.17 in 7.0 mi North 4.6 mph - N/A   Clear
11:55 PM 37.4 °F 33.8 °F 36.5 °F 97% 30.17 in 5.0 mi North 4.6 mph - N/A   Clear